Location: Aldenham
(51.6667°N, 0.3500°W)
Time: 23:10:40
(UTC+00:00)

Transit 2A - All Passes

Search period start: 16 February 2026 00:00
Search period end: 26 February 2026 00:00
Orbit: 589 x 955 km, 66.7° (Epoch: 16 February)

Date Brightness Start Highest point End Pass type
(mag) Time Alt. Az. Time Alt. Az. Time Alt. Az.
16 Feb - 12:43:37 10° S 12:49:27 45° ESE 12:55:27 10° NE daylight
16 Feb - 14:26:29 10° WSW 14:32:35 53° NW 14:38:47 10° NE daylight
16 Feb - 16:12:03 10° WNW 16:17:06 24° NNW 16:22:05 10° NE daylight
16 Feb - 17:57:45 10° NW 18:02:22 21° N 18:06:50 10° NE visible
16 Feb - 19:41:37 10° NNW 19:47:18 35° NNE 19:52:38 10° E visible
16 Feb - 21:24:51 10° NW 21:30:59 75° WSW 21:36:35 10° SSE visible
16 Feb - 23:09:33 10° WNW 23:13:01 16° WSW 23:16:19 10° SW visible
17 Feb - 12:07:51 10° S 12:13:17 33° ESE 12:18:51 10° NE daylight
17 Feb - 13:49:52 10° SW 13:56:05 67° NW 14:02:26 10° NE daylight
17 Feb - 15:35:02 10° W 15:40:21 27° NNW 15:45:36 10° NNE daylight
17 Feb - 17:20:59 10° NW 17:25:31 20° N 17:29:57 10° NE daylight
17 Feb - 19:05:12 10° NNW 19:10:37 30° NNE 19:15:44 10° E visible
17 Feb - 20:48:26 10° NW 20:54:38 83° NE 21:00:17 10° SE visible
17 Feb - 22:32:28 10° WNW 22:37:00 23° WSW 22:41:16 10° SSW visible
18 Feb - 11:32:20 10° SSE 11:37:11 24° ESE 11:42:07 10° ENE daylight
18 Feb - 13:13:24 10° SW 13:19:39 85° NW 13:26:03 10° NE daylight
18 Feb - 14:58:04 10° W 15:03:38 31° NNW 15:09:10 10° NNE daylight
18 Feb - 16:44:07 10° NW 16:48:41 20° N 16:53:08 10° NE daylight
18 Feb - 18:28:45 10° NNW 18:33:53 26° NNE 18:38:47 10° ENE visible
18 Feb - 20:12:03 10° NW 20:18:12 64° NE 20:23:49 10° SE visible
18 Feb - 21:55:42 10° NW 22:00:56 32° WSW 22:05:46 10° S visible
19 Feb - 10:57:14 10° SE 11:01:09 18° ESE 11:05:07 10° ENE daylight
19 Feb - 12:37:06 10° SSW 12:43:18 74° ESE 12:49:38 10° NE daylight
19 Feb - 14:21:09 10° W 14:26:58 37° NW 14:32:47 10° NNE daylight
19 Feb - 16:07:10 10° WNW 16:11:50 21° N 16:16:26 10° NE daylight
19 Feb - 17:52:14 10° NW 17:57:07 23° NNE 18:01:48 10° ENE visible
19 Feb - 19:35:40 10° NW 19:41:41 50° NE 19:47:13 10° ESE visible
19 Feb - 21:19:05 10° NW 21:24:47 44° WSW 21:30:00 10° S visible
20 Feb - 10:22:57 10° ESE 10:25:11 12° E 10:27:25 10° ENE daylight
20 Feb - 12:00:58 10° SSW 12:07:00 56° ESE 12:13:11 10° NE daylight
20 Feb - 13:44:20 10° WSW 13:50:22 45° NW 13:56:25 10° NE daylight
20 Feb - 15:30:09 10° WNW 15:35:02 22° NNW 15:39:49 10° NE daylight
20 Feb - 17:15:38 10° NW 17:20:19 21° N 17:24:50 10° ENE daylight
20 Feb - 18:59:17 10° NNW 19:05:06 40° NE 19:10:30 10° ESE visible
20 Feb - 20:42:34 10° NW 20:48:34 61° WSW 20:54:00 10° SSE visible
20 Feb - 22:28:12 10° WNW 22:30:20 12° W 22:32:24 10° WSW visible
21 Feb - 11:25:01 10° S 11:30:47 41° ESE 11:36:40 10° NE daylight
21 Feb - 13:07:38 10° WSW 13:13:49 57° NW 13:20:03 10° NE daylight
21 Feb - 14:53:07 10° WNW 14:58:14 25° NNW 15:03:17 10° NE daylight
21 Feb - 16:38:56 10° NW 16:43:29 20° N 16:47:53 10° NE daylight
21 Feb - 18:22:54 10° NNW 18:28:28 33° NNE 18:33:40 10° E visible
21 Feb - 20:06:08 10° NW 20:12:15 82° SW 20:17:49 10° SSE visible
21 Feb - 21:50:35 10° WNW 21:54:23 18° WSW 21:57:58 10° SW visible
22 Feb - 10:49:19 10° S 10:54:37 30° ESE 11:00:02 10° NE daylight
22 Feb - 12:31:05 10° SW 12:37:20 72° NW 12:43:41 10° NE daylight
22 Feb - 14:16:06 10° W 14:21:29 28° NNW 14:26:49 10° NNE daylight
22 Feb - 16:02:07 10° NW 16:06:38 20° N 16:11:01 10° NE daylight
22 Feb - 17:46:28 10° NNW 17:51:46 28° NNE 17:56:46 10° E daylight
22 Feb - 19:29:43 10° NW 19:35:52 76° NE 19:41:28 10° SE visible
22 Feb - 21:13:37 10° NW 21:18:21 25° WSW 21:22:46 10° SSW visible
23 Feb - 10:13:55 10° SSE 10:18:32 22° ESE 10:23:13 10° ENE daylight
23 Feb - 11:54:39 10° SW 12:00:55 88° SE 12:07:17 10° NE daylight
23 Feb - 13:39:08 10° W 13:44:48 33° NNW 13:50:24 10° NNE daylight
23 Feb - 15:25:13 10° NW 15:29:47 20° N 15:34:15 10° NE daylight
23 Feb - 17:10:00 10° NNW 17:15:02 25° NNE 17:19:47 10° ENE daylight
23 Feb - 18:53:20 10° NW 18:59:24 59° NE 19:04:57 10° SE visible
23 Feb - 20:36:54 10° NW 20:42:15 35° WSW 20:47:10 10° S visible
24 Feb - 09:38:58 10° SE 09:42:30 16° ESE 09:46:05 10° ENE daylight
24 Feb - 11:18:23 10° SSW 11:24:35 68° ESE 11:30:52 10° NE daylight
24 Feb - 13:02:15 10° WSW 13:08:09 39° NW 13:14:02 10° NNE daylight
24 Feb - 14:48:14 10° WNW 14:52:57 21° NNW 14:57:34 10° NE daylight
24 Feb - 16:33:27 10° NW 16:38:14 22° NNE 16:42:48 10° ENE daylight
24 Feb - 18:16:57 10° NW 18:22:52 46° NE 18:28:18 10° ESE visible
24 Feb - 20:00:19 10° NW 20:06:05 49° WSW 20:11:19 10° S visible
25 Feb - 09:05:22 10° ESE 09:06:34 11° E 09:07:46 10° E daylight
25 Feb - 10:42:18 10° SSW 10:48:18 51° ESE 10:54:24 10° NE daylight
25 Feb - 12:25:28 10° WSW 12:31:34 49° NW 12:37:39 10° NE daylight
25 Feb - 14:11:12 10° WNW 14:16:09 23° NNW 14:20:59 10° NE daylight
25 Feb - 15:56:49 10° NW 16:01:24 21° N 16:05:50 10° ENE daylight
25 Feb - 17:40:34 10° NNW 17:46:16 37° NE 17:51:32 10° ESE daylight
25 Feb - 19:23:49 10° NW 19:29:49 67° WSW 19:35:15 10° SSE visible
25 Feb - 21:08:59 10° WNW 21:11:42 14° W 21:14:17 10° SW visible
